Weather Service Report


134 
ASUS45 KREV 281810
RWRNV 
NEVADA REGIONAL WEATHER ROUNDUP
NATIONAL WEATHER SERVICE RENO NV
1100 AM PDT THU AUG 28 2014

NOTE: "FAIR" INDICATES FEW OR NO CLOUDS BELOW 12,000 FEET WITH NO
SIGNIFICANT WEATHER AND/OR OBSTRUCTIONS TO VISIBILITY.

NVZ001-003-004-281900-
WESTERN NEVADA
  
CITY           SKY/WX    TMP DP  RH WIND       PRES   REMARKS
RENO           MOSUNNY   80  42  25 CALM      30.22F                  
6HR MIN TEMP:  60; 6HR MAX TEMP:  80;                                

CARSON CITY    FAIR      77  41  27 SW5       30.23F                  
MINDEN           N/A    N/A N/A N/A MISG        N/A                   
FALLON         SUNNY     85  38  18 VRB3      30.18S                  
6HR MIN TEMP:  56; 6HR MAX TEMP:  85;                                

LOVELOCK       SUNNY     83  42  23 S6        30.17F                  
6HR MIN TEMP:  45; 6HR MAX TEMP:  83;                                

HAWTHORNE      SUNNY     81  32  17 CALM      30.21F                  
$$

NVZ002-CAZ072-073-281900-
NORTHERN AND CENTRAL SIERRA
  
CITY           SKY/WX    TMP DP  RH WIND       PRES   REMARKS
S. LAKE TAHOE  SUNNY     74  47  38 NE9       30.33F                  
6HR MIN TEMP:  45; 6HR MAX TEMP:  74;                                

TRUCKEE        SUNNY     72  43  35 CALM      30.32F                  
SQUAW VLY 8000 NOT AVBL                                               
SUSANVILLE     SUNNY     81  41  24 CALM      30.20F                  
BLUE CANYON    SUNNY     74  39  28 W6        30.30F                  
MAMMOTH LAKES  FAIR      75  27  16 SE5       30.40S                  
BRIDGEPORT     FAIR      77  30  17 CALM      30.32F                  
$$

NVZ030-031-036-281900-
NORTHERN NEVADA
  
CITY           SKY/WX    TMP DP  RH WIND       PRES   REMARKS
ELKO           SUNNY     78  37  22 VRB3      30.25F                  
6HR MIN TEMP:  43; 6HR MAX TEMP:  78;                                

WINNEMUCCA     SUNNY     83  34  17 W7        30.19F                  
6HR MIN TEMP:  49; 6HR MAX TEMP:  83;                                

WENDOVER       SUNNY     75  46  35 E6        30.22F                  
$$

NVZ035-037-281900-
CENTRAL NEVADA
  
CITY           SKY/WX    TMP DP  RH WIND       PRES   REMARKS
ELY            SUNNY     76  33  21 VRB6      30.33F                  
6HR MIN TEMP:  43; 6HR MAX TEMP:  76;                                

EUREKA           N/A     79  29  16 CALM      30.30F                  
6HR MIN TEMP:  48; 6HR MAX TEMP:  79;                                

$$

NVZ013-014-281900-
SOUTH CENTRAL NEVADA
  
CITY           SKY/WX    TMP DP  RH WIND       PRES   REMARKS
TONOPAH        SUNNY     79  29  16 VRB3      30.29S                  
6HR MIN TEMP:  56; 6HR MAX TEMP:  80;                                

$$

NVZ017-020-022-281900-
SOUTHERN NEVADA
  
CITY           SKY/WX    TMP DP  RH WIND       PRES   REMARKS
LAS VEGAS      SUNNY     90  39  16 S3        30.03F                  
6HR MIN TEMP:  76; 6HR MAX TEMP:  91;                                

N. LAS VEGAS   SUNNY     91  34  13 E5        30.06F                  
6HR MIN TEMP:  74; 6HR MAX TEMP:  91;                                

NELLIS AFB     SUNNY     91  43  18 E1        30.04F                  
6HR MIN TEMP:  73; 6HR MAX TEMP:  92;                                

HENDERSON      SUNNY     91  40  16 N6        30.09F                  
6HR MIN TEMP:  71; 6HR MAX TEMP:  92;                                

MERCURY        SUNNY     89  29  11 CALM      30.13F                  
6HR MIN TEMP:  62; 6HR MAX TEMP:  89;                                

$$

Return to Home page


Western Regional Climate Center, wrcc@dri.edu